Weather History for K6R3 - May, 2014

Change the Weather History Date:

Tuesday, May 6, 2014

  Actual Average (WUND) Record (WUND)
Temperature  
Mean Temperature 71 °F -  
Max Temperature 82 °F - - (-1)
Min Temperature 60 °F - - (-1)
Cooling Degree Days 6    
Growing Degree Days 21 (Base 50)    
Moisture  
Dew Point 63 °F    
Average Humidity 73    
Maximum Humidity 97    
Minimum Humidity 53    
Precipitation  
Precipitation 0.00 in - - ()
Sea Level Pressure  
Sea Level Pressure 29.90 in    
Wind  
Wind Speed 6 mph (South)    
Max Wind Speed 16 mph    
Max Gust Speed 28 mph    
Visibility 10 miles    
Events      
Averages and records for this station are not official NWS values.
T = Trace of Precipitation, MM = Missing Value Source: NWS Daily Summary

Daily Weather History Graph

Daily Weather History Graph

Search for Another Location

Airport or City:

Trip Planner

Search our weather history database for the weather conditions in past years. The results will help you decide how hot, cold, wet, or windy it might be!

Date:

Astronomy

May. 06, 2014 Rise Set
Actual Time 6:32 AM CDT 8:01 PM CDT
Civil Twilight 6:06 AM CDT 8:27 PM CDT
Nautical Twilight 5:35 AM CDT 8:57 PM CDT
Astronomical Twilight 5:03 AM CDT 9:30 PM CDT
Moon 12:44 PM CDT (5/6) 1:24 AM CDT (5/6)
Length of Visible Light 14h 20m
Length of Day
13h 28m
Waxing Crescent, 46% of the Moon is Illuminated
May 6
Waxing Crescent
May 6
First Quarter
May 14
Full
May 21
Last Quarter
May 28
New

Hourly Weather History & Observations

Time (CDT) Temp. Heat Index Dew Point Humidity Pressure Visibility Wind Dir Wind Speed Gust Speed Precip Events Conditions
12:15 AM 63.9 °F - 61.3 °F 91% 29.96 in 10.0 mi Calm Calm - N/A   Scattered Clouds
12:35 AM 62.6 °F - 60.8 °F 94% 29.95 in 10.0 mi Calm Calm - N/A   Scattered Clouds
12:55 AM 61.7 °F - 60.3 °F 95% 29.95 in 10.0 mi Calm Calm - N/A   Mostly Cloudy
1:15 AM 61.0 °F - 59.7 °F 96% 29.93 in 10.0 mi Calm Calm - N/A   Mostly Cloudy
1:35 AM 60.8 °F - 59.9 °F 97% 29.93 in 10.0 mi Calm Calm - N/A   Mostly Cloudy
1:55 AM 61.7 °F - 60.4 °F 96% 29.92 in 10.0 mi South 3.5 mph - N/A   Overcast
2:15 AM 63.0 °F - 61.7 °F 96% 29.91 in 10.0 mi South 3.5 mph - N/A   Overcast
2:35 AM 63.9 °F - 61.9 °F 93% 29.90 in 10.0 mi South 5.8 mph - N/A   Overcast
6:55 AM 61.2 °F - 59.4 °F 94% 29.90 in 10.0 mi Calm Calm - N/A   Scattered Clouds
7:15 AM 60.8 °F - 59.2 °F 94% 29.91 in 10.0 mi Calm Calm - N/A   Clear
7:35 AM 61.9 °F - 60.4 °F 95% 29.92 in 10.0 mi Calm Calm - N/A   Clear
7:55 AM 63.7 °F - 61.7 °F 93% 29.92 in 10.0 mi Calm Calm - N/A   Mostly Cloudy
8:15 AM 67.1 °F - 62.6 °F 85% 29.92 in 10.0 mi South 3.5 mph - N/A   Scattered Clouds
9:15 AM 73.2 °F - 63.3 °F 71% 29.93 in 10.0 mi South 9.2 mph - N/A   Overcast
9:35 AM 72.7 °F - 62.6 °F 71% 29.94 in 10.0 mi SSW 10.4 mph 16.1 mph N/A   Overcast
9:55 AM 76.1 °F - 62.2 °F 62% 29.94 in 10.0 mi South 15.0 mph 26.5 mph N/A   Overcast
10:15 AM 76.3 °F - 62.4 °F 62% 29.95 in 10.0 mi South 10.4 mph 23.0 mph N/A   Mostly Cloudy
10:35 AM 77.4 °F - 62.4 °F 60% 29.95 in 10.0 mi South 13.8 mph 20.7 mph N/A   Mostly Cloudy
10:55 AM 79.0 °F - 62.8 °F 57% 29.95 in 10.0 mi South 12.7 mph 18.4 mph N/A   Mostly Cloudy
11:15 AM 79.2 °F - 63.1 °F 58% 29.94 in 10.0 mi South 16.1 mph 24.2 mph N/A   Mostly Cloudy
11:35 AM 78.6 °F - 62.8 °F 58% 29.95 in 10.0 mi South 16.1 mph 21.9 mph N/A   Mostly Cloudy
11:55 AM 80.6 °F 81.9 °F 63.1 °F 55% 29.94 in 10.0 mi SSE 10.4 mph 20.7 mph N/A   Mostly Cloudy
12:15 PM 79.9 °F - 63.0 °F 56% 29.93 in 10.0 mi South 12.7 mph 21.9 mph N/A   Mostly Cloudy
12:35 PM 80.6 °F 81.9 °F 63.3 °F 55% 29.93 in 10.0 mi South 9.2 mph - N/A   Mostly Cloudy
12:55 PM 81.5 °F 82.8 °F 63.3 °F 54% 29.92 in 10.0 mi South 15.0 mph 20.7 mph N/A   Scattered Clouds
1:15 PM 82.6 °F 83.9 °F 63.9 °F 53% 29.92 in 10.0 mi South 10.4 mph 21.9 mph N/A   Scattered Clouds
1:35 PM 82.2 °F 83.8 °F 64.6 °F 55% 29.91 in 10.0 mi South 16.1 mph 20.7 mph N/A   Scattered Clouds
1:55 PM 81.5 °F 83.1 °F 64.6 °F 56% 29.90 in 10.0 mi SSE 6.9 mph 20.7 mph N/A   Mostly Cloudy
2:15 PM 81.5 °F 83.4 °F 65.5 °F 58% 29.90 in 10.0 mi SSE 8.1 mph 20.7 mph N/A   Mostly Cloudy
2:35 PM 81.7 °F 83.3 °F 64.8 °F 56% 29.89 in 10.0 mi SSE 13.8 mph 19.6 mph N/A   Mostly Cloudy
3:15 PM 81.1 °F 82.8 °F 64.4 °F 57% 29.88 in 10.0 mi South 15.0 mph 20.7 mph N/A   Scattered Clouds
3:35 PM 82.0 °F 83.6 °F 64.6 °F 55% 29.87 in 10.0 mi South 16.1 mph 23.0 mph N/A   Scattered Clouds
3:55 PM 82.9 °F 84.8 °F 65.1 °F 55% 29.87 in 10.0 mi SSE 9.2 mph 25.3 mph N/A   Scattered Clouds
4:15 PM 80.1 °F 81.7 °F 63.9 °F 58% 29.86 in 10.0 mi SSE 12.7 mph 27.6 mph N/A   Mostly Cloudy
4:35 PM 81.3 °F 82.9 °F 64.0 °F 56% 29.86 in 7.0 mi South 15.0 mph 25.3 mph N/A   Scattered Clouds
4:55 PM 80.8 °F 82.4 °F 64.0 °F 57% 29.86 in 10.0 mi SSE 13.8 mph 21.9 mph N/A   Clear
5:15 PM 81.1 °F 82.7 °F 64.0 °F 56% 29.86 in 10.0 mi South 15.0 mph 20.7 mph N/A   Scattered Clouds
5:35 PM 80.6 °F 82.3 °F 64.6 °F 58% 29.86 in 10.0 mi SSE 11.5 mph 23.0 mph N/A   Mostly Cloudy
5:55 PM 79.7 °F - 64.4 °F 59% 29.86 in 10.0 mi South 13.8 mph 25.3 mph N/A   Scattered Clouds
6:15 PM 79.3 °F - 64.4 °F 60% 29.86 in 10.0 mi South 13.8 mph 21.9 mph N/A   Mostly Cloudy
6:35 PM 78.1 °F - 64.6 °F 63% 29.86 in 10.0 mi SSE 10.4 mph 19.6 mph N/A   Mostly Cloudy
6:55 PM 76.3 °F - 64.4 °F 67% 29.86 in 10.0 mi SSE 10.4 mph 19.6 mph N/A   Scattered Clouds
7:15 PM 75.2 °F - 64.4 °F 69% 29.86 in 10.0 mi South 11.5 mph 20.7 mph N/A   Clear
7:35 PM 73.9 °F - 64.0 °F 71% 29.85 in 10.0 mi South 9.2 mph 17.3 mph N/A   Clear
7:55 PM 72.0 °F - 63.9 °F 76% 29.85 in 10.0 mi SSE 10.4 mph 17.3 mph N/A   Clear
8:15 PM 71.6 °F - 63.5 °F 76% 29.85 in 10.0 mi South 9.2 mph - N/A   Clear
8:35 PM 70.7 °F - 63.9 °F 79% 29.86 in 10.0 mi South 6.9 mph - N/A   Clear
8:55 PM 69.8 °F - 64.0 °F 82% 29.86 in 10.0 mi SSE 3.5 mph - N/A   Clear
9:15 PM 68.7 °F - 63.9 °F 84% 29.87 in 10.0 mi SSE 5.8 mph - N/A   Unknown
9:35 PM 68.7 °F - 64.4 °F 86% 29.87 in 10.0 mi SSE 4.6 mph - N/A   Clear
9:55 PM 68.4 °F - 64.6 °F 88% 29.88 in 10.0 mi SSE 4.6 mph - N/A   Clear
10:15 PM 68.0 °F - 64.8 °F 89% 29.89 in 10.0 mi SSE 3.5 mph - N/A   Clear
10:35 PM 67.5 °F - 64.9 °F 92% 29.91 in 10.0 mi SSE 4.6 mph - N/A   Clear
10:55 PM 67.1 °F - 64.9 °F 93% 29.91 in 5.0 mi SSE 3.5 mph - N/A   Clear
11:15 PM 66.2 °F - 64.6 °F 94% 29.90 in 10.0 mi Calm Calm - N/A   Clear
11:35 PM 66.2 °F - 64.8 °F 95% 29.90 in 10.0 mi Calm Calm - N/A   Clear
11:55 PM 66.4 °F - 65.3 °F 96% 29.91 in 10.0 mi South 3.5 mph - N/A   Clear